Weather History for Burlington, CO

Change the Weather History Date:

Friday, August 30, 2013

  Actual Average Record
Temperature  
Mean Temperature 82 °F 69 °F  
Max Temperature 100 °F 84 °F 102 °F (1990)
Min Temperature 63 °F 55 °F 45 °F (2004)
Cooling Degree Days 16    
Growing Degree Days 32 (Base 50)    
Moisture  
Dew Point 50 °F    
Average Humidity 37    
Maximum Humidity 59    
Minimum Humidity 15    
Precipitation  
Precipitation T in 0.08 in 1.54 in (1978)
Month to date precipitation 1.86 2.34  
Year to date precipitation 10.39 14.08  
Sea Level Pressure  
Sea Level Pressure 29.92 in    
Wind  
Wind Speed 9 mph (North)    
Max Wind Speed 20 mph    
Max Gust Speed 33 mph    
Visibility 10 miles    
Events      
T = Trace of Precipitation, MM = Missing Value Source: NWS Daily Summary

Daily Weather History Graph

Daily Weather History Graph

Search for Another Location

Airport:

Trip Planner

Search our weather history database for the weather conditions in past years. The results will help you decide how hot, cold, wet, or windy it might be!

Date:

Astronomy

Aug. 30, 2013 Rise Set
Actual Time 6:16 AM MDT 7:22 PM MDT
Civil Twilight 5:48 AM MDT 7:49 PM MDT
Nautical Twilight 5:15 AM MDT 8:22 PM MDT
Astronomical Twilight 4:41 AM MDT 8:56 PM MDT
Moon 12:57 AM MDT (8/30) 3:38 PM MDT (8/30)
Length of Visible Light 14h 01m
Length of Day
13h 06m
Waning Crescent, 28% of the Moon is Illuminated
Aug 30
Waning Crescent
Sep 5
New
Sep 12
First Quarter
Sep 19
Full
Sep 26
Last Quarter

Hourly Weather History & Observations

Time (MDT) Temp. Heat Index Dew Point Humidity Pressure Visibility Wind Dir Wind Speed Gust Speed Precip Events Conditions
12:53 AM 66.0 °F - 48.9 °F 54% 29.92 in 10.0 mi WSW 8.1 mph - N/A   Clear
1:53 AM 66.9 °F - 50.0 °F 54% 29.91 in 10.0 mi WSW 9.2 mph - N/A   Clear
2:53 AM 64.9 °F - 48.9 °F 56% 29.91 in 10.0 mi West 10.4 mph - N/A   Clear
3:53 AM 63.0 °F - 48.0 °F 58% 29.91 in 10.0 mi West 8.1 mph - N/A   Clear
4:53 AM 64.9 °F - 46.0 °F 50% 29.91 in 10.0 mi WNW 11.5 mph - N/A   Clear
5:53 AM 66.0 °F - 48.0 °F 52% 29.92 in 10.0 mi WNW 10.4 mph - N/A   Clear
6:53 AM 66.9 °F - 48.9 °F 52% 29.96 in 10.0 mi West 6.9 mph - N/A   Clear
7:53 AM 73.9 °F - 51.1 °F 45% 29.97 in 10.0 mi NNW 9.2 mph - N/A   Clear
8:53 AM 81.0 °F - 52.0 °F 36% 29.96 in 10.0 mi North 4.6 mph - N/A   Clear
9:53 AM 88.0 °F - 51.1 °F 28% 29.96 in 10.0 mi NE 5.8 mph - N/A   Clear
10:53 AM 91.0 °F 88.5 °F 53.1 °F 27% 29.96 in 10.0 mi Variable 5.8 mph - N/A   Clear
11:53 AM 96.1 °F - 51.1 °F 22% 29.94 in 10.0 mi NE 8.1 mph - N/A   Clear
12:53 PM 97.0 °F - 46.9 °F 18% 29.93 in 10.0 mi Calm Calm - N/A   Clear
1:53 PM 97.0 °F - 46.0 °F 18% 29.91 in 10.0 mi Variable 3.5 mph - N/A   Clear
2:53 PM 100.0 °F - 45.0 °F 15% 29.88 in 10.0 mi ESE 9.2 mph - N/A   Clear
3:53 PM 97.0 °F - 46.0 °F 18% 29.88 in 10.0 mi Variable 4.6 mph - N/A   Clear
4:53 PM 95.0 °F - 48.9 °F 21% 29.86 in 10.0 mi ENE 15.0 mph 23.0 mph N/A   Clear
5:53 PM 93.9 °F - 46.0 °F 19% 29.86 in 10.0 mi East 11.5 mph - N/A   Clear
6:53 PM 90.0 °F - 46.9 °F 23% 29.86 in 10.0 mi East 8.1 mph - N/A   Clear
7:53 PM 82.9 °F - 50.0 °F 32% 29.86 in 10.0 mi East 4.6 mph - N/A   Clear
8:53 PM 80.1 °F - 51.1 °F 36% 29.86 in 10.0 mi SSE 4.6 mph - N/A   Clear
9:53 PM 80.1 °F 79.9 °F 53.1 °F 39% 29.90 in 10.0 mi North 16.1 mph 33.4 mph N/A   Mostly Cloudy
10:00 PM 77.0 °F - 55.4 °F 47% 30.10 in 10.0 mi NNW 19.6 mph 27.6 mph N/A   Overcast
10:53 PM 75.9 °F - 57.0 °F 52% 29.89 in 10.0 mi NNE 12.7 mph - 0.00 in   Partly Cloudy
11:53 PM 73.9 °F - 59.0 °F 59% 29.88 in 10.0 mi ENE 12.7 mph - N/A   Partly Cloudy